When you browse on this site, cookies collect data to enhance your experience and personalize the content and advertising you see.
Visit our Privacy Policy to learn more. By continuing to use the site, you agree to this use of cookies and data.
  • In Germany
  • List of Countries
  • For 7 days
  • Water Temperature
  • Weather Map
  • Weather Widgets
  • user-avatar
    Login

    Hourly Weather Linz

    Today, 10 December, Tuesday

    Time Temperature Precipitation Wind Pressure Humidity
    00:00 +4°C° 0.3 mm 3 mps 729 mmHg 93%
    01:00 +4°C° 0 mm 4 mps 730 mmHg 93%
    02:00 +4°C° 0.3 mm 4 mps 731 mmHg 91%
    03:00 +4°C° 0.3 mm 4 mps 732 mmHg 90%
    04:00 +4°C° 0.3 mm 4 mps 732 mmHg 88%
    05:00 +4°C° 0.2 mm 4 mps 733 mmHg 89%
    06:00 +3°C° 0.2 mm 4 mps 734 mmHg 90%
    07:00 +3°C° 0 mm 4 mps 735 mmHg 90%
    08:00 +3°C° 0.3 mm 4 mps 736 mmHg 87%
    09:00 +2°C° 0.3 mm 5 mps 737 mmHg 83%
    10:00 +2°C° 0.3 mm 5 mps 738 mmHg 79%
    11:00 +2°C° 0.1 mm 5 mps 738 mmHg 78%
    12:00 +2°C° 0.1 mm 5 mps 739 mmHg 76%
    13:00 +2°C° 0.1 mm 6 mps 739 mmHg 75%
    14:00 +1°C° 0 mm 5 mps 739 mmHg 77%
    15:00 +1°C° 0 mm 4 mps 739 mmHg 79%
    16:00 +1°C° 0 mm 3 mps 739 mmHg 80%
    17:00 +1°C° 0 mm 3 mps 740 mmHg 83%
    18:00 +1°C° 0 mm 2 mps 740 mmHg 86%
    19:00 +2°C° 0 mm 1 mps 740 mmHg 89%
    20:00 +1°C° 0 mm 1 mps 740 mmHg 88%
    21:00 +1°C° 0 mm 1 mps 740 mmHg 88%
    22:00 0°C° 0 mm 0 mps 740 mmHg 87%
    23:00 +1°C° 0 mm 1 mps 739 mmHg 86%

    Tomorrow, 11 December, Wednesday

    Time Temperature Precipitation Wind Pressure Humidity
    00:00 0°C° 0 mm 1 mps 739 mmHg 85%
    01:00 0°C° 0 mm 1 mps 738 mmHg 85%
    02:00 0°C° 0 mm 1 mps 737 mmHg 84%
    03:00 0°C° 0 mm 1 mps 737 mmHg 83%
    04:00 0°C° 0 mm 1 mps 736 mmHg 83%
    05:00 0°C° 0 mm 1 mps 735 mmHg 82%
    06:00 0°C° 0 mm 1 mps 735 mmHg 81%
    07:00 0°C° 0 mm 1 mps 735 mmHg 81%
    08:00 0°C° 0 mm 1 mps 734 mmHg 75%
    09:00 -1°C° 0 mm 2 mps 733 mmHg 70%
    10:00 +1°C° 0 mm 2 mps 733 mmHg 65%
    11:00 +2°C° 0 mm 2 mps 732 mmHg 62%
    12:00 +3°C° 0 mm 2 mps 731 mmHg 58%
    13:00 +4°C° 0 mm 2 mps 731 mmHg 54%
    14:00 +4°C° 0 mm 1 mps 730 mmHg 59%
    15:00 +2°C° 0 mm 1 mps 729 mmHg 65%
    16:00 0°C° 0 mm 0 mps 729 mmHg 70%
    17:00 0°C° 0 mm 0 mps 729 mmHg 70%
    18:00 0°C° 0 mm 0 mps 729 mmHg 70%
    19:00 -1°C° 0 mm 0 mps 729 mmHg 70%
    20:00 -1°C° 0 mm 0 mps 728 mmHg 70%
    21:00 -1°C° 0 mm 0 mps 728 mmHg 70%
    22:00 -1°C° 0 mm 0 mps 728 mmHg 70%
    23:00 -1°C° 0 mm 0 mps 728 mmHg 69%

    Day after tomorrow, 12 December, Thursday

    Time Temperature Precipitation Wind Pressure Humidity
    00:00 0°C° 0 mm 0 mps 727 mmHg 68%
    01:00 0°C° 0 mm 0 mps 727 mmHg 67%
    02:00 0°C° 0.3 mm 0 mps 727 mmHg 76%
    03:00 +1°C° 0.3 mm 1 mps 726 mmHg 85%
    04:00 +1°C° 0.3 mm 1 mps 726 mmHg 94%
    05:00 +1°C° 0.3 mm 1 mps 726 mmHg 95%
    06:00 +2°C° 0.3 mm 1 mps 726 mmHg 96%
    07:00 +2°C° 0.3 mm 1 mps 726 mmHg 96%
    08:00 +1°C° 0.2 mm 2 mps 726 mmHg 97%
    09:00 +2°C° 0.2 mm 2 mps 726 mmHg 97%
    10:00 +2°C° 0.2 mm 2 mps 726 mmHg 97%
    11:00 +1°C° 0.4 mm 3 mps 726 mmHg 94%
    12:00 0°C° 0.4 mm 4 mps 726 mmHg 92%
    13:00 +1°C° 0.4 mm 4 mps 726 mmHg 90%
    14:00 0°C° 0.1 mm 4 mps 725 mmHg 89%
    15:00 +1°C° 0.1 mm 3 mps 725 mmHg 89%
    16:00 +1°C° 0.1 mm 3 mps 725 mmHg 88%
    17:00 +1°C° 0 mm 2 mps 725 mmHg 89%
    18:00 -1°C° 0 mm 2 mps 725 mmHg 89%
    19:00 +1°C° 0 mm 1 mps 725 mmHg 90%
    20:00 0°C° 0 mm 1 mps 724 mmHg 89%
    21:00 0°C° 0 mm 1 mps 724 mmHg 88%
    22:00 0°C° 0 mm 1 mps 723 mmHg 87%
    23:00 -2°C° 0 mm 2 mps 722 mmHg 87%

    13 December, Friday

    Time Temperature Precipitation Wind Pressure Humidity
    00:00 -3°C° 0 mm 2 mps 721 mmHg 87%
    01:00 -3°C° 0 mm 2 mps 720 mmHg 87%
    02:00 -4°C° 0 mm 3 mps 719 mmHg 86%
    03:00 -4°C° 0 mm 3 mps 717 mmHg 84%
    04:00 -2°C° 0 mm 3 mps 716 mmHg 83%
    05:00 -2°C° 0 mm 3 mps 715 mmHg 82%
    06:00 -2°C° 0 mm 3 mps 714 mmHg 81%
    07:00 -2°C° 0 mm 3 mps 713 mmHg 80%
    08:00 -1°C° 0 mm 2 mps 713 mmHg 79%
    09:00 -1°C° 0 mm 2 mps 713 mmHg 77%
    10:00 +2°C° 0 mm 1 mps 713 mmHg 76%
    11:00 +1°C° 0.1 mm 2 mps 713 mmHg 77%
    12:00 +2°C° 0.1 mm 2 mps 713 mmHg 78%
    13:00 +2°C° 0.1 mm 2 mps 713 mmHg 79%
    14:00 +2°C° 0 mm 2 mps 713 mmHg 81%
    15:00 +2°C° 0 mm 1 mps 714 mmHg 84%
    16:00 +2°C° 0 mm 1 mps 714 mmHg 87%
    17:00 +2°C° 0 mm 1 mps 715 mmHg 87%
    18:00 +2°C° 0 mm 1 mps 715 mmHg 87%
    19:00 +2°C° 0 mm 1 mps 716 mmHg 88%
    20:00 +2°C° 0 mm 1 mps 716 mmHg 88%
    21:00 +2°C° 0 mm 1 mps 717 mmHg 87%
    22:00 +2°C° 0 mm 1 mps 718 mmHg 87%
    23:00 +2°C° 0 mm 1 mps 718 mmHg 87%

    14 December, Saturday

    Time Temperature Precipitation Wind Pressure Humidity
    00:00 +1°C° 0 mm 2 mps 719 mmHg 86%
    01:00 +1°C° 0 mm 2 mps 719 mmHg 86%
    02:00 +1°C° 0 mm 2 mps 720 mmHg 86%
    03:00 +1°C° 0 mm 2 mps 720 mmHg 87%
    04:00 +2°C° 0 mm 2 mps 721 mmHg 87%
    05:00 +2°C° 0.1 mm 2 mps 721 mmHg 86%
    06:00 +2°C° 0.1 mm 2 mps 722 mmHg 86%
    07:00 +1°C° 0.1 mm 3 mps 722 mmHg 86%
    08:00 +2°C° 0 mm 2 mps 722 mmHg 83%
    09:00 +3°C° 0 mm 2 mps 723 mmHg 81%
    10:00 +3°C° 0 mm 2 mps 723 mmHg 79%
    11:00 +4°C° 0 mm 2 mps 723 mmHg 78%
    12:00 +6°C° 0 mm 1 mps 723 mmHg 77%
    13:00 +6°C° 0 mm 1 mps 723 mmHg 76%
    14:00 +6°C° 0.1 mm 1 mps 723 mmHg 79%
    15:00 +5°C° 0.1 mm 2 mps 724 mmHg 82%
    16:00 +4°C° 0.1 mm 2 mps 724 mmHg 85%
    17:00 +4°C° 0.2 mm 2 mps 725 mmHg 86%
    18:00 +4°C° 0.2 mm 2 mps 725 mmHg 87%
    19:00 +4°C° 0.2 mm 2 mps 726 mmHg 88%
    20:00 +4°C° 0.1 mm 2 mps 726 mmHg 86%
    21:00 +4°C° 0.1 mm 2 mps 727 mmHg 85%
    22:00 +4°C° 0.1 mm 2 mps 727 mmHg 84%
    23:00 +4°C° 0 mm 2 mps 728 mmHg 83%

    15 December, Sunday

    Time Temperature Precipitation Wind Pressure Humidity
    00:00 +4°C° 0 mm 2 mps 728 mmHg 83%
    01:00 +4°C° 0 mm 2 mps 728 mmHg 82%
    02:00 +4°C° 0 mm 2 mps 729 mmHg 82%
    03:00 +5°C° 0 mm 1 mps 729 mmHg 82%
    04:00 +5°C° 0 mm 1 mps 729 mmHg 82%
    05:00 +4°C° 0.1 mm 1 mps 729 mmHg 82%
    06:00 +4°C° 0.1 mm 1 mps 729 mmHg 82%
    07:00 +4°C° 0.1 mm 1 mps 729 mmHg 82%
    08:00 +4°C° 0 mm 2 mps 729 mmHg 80%
    09:00 +5°C° 0 mm 2 mps 729 mmHg 79%
    10:00 +5°C° 0 mm 2 mps 729 mmHg 77%
    11:00 +6°C° 0 mm 2 mps 729 mmHg 76%
    12:00 +7°C° 0 mm 2 mps 729 mmHg 75%
    13:00 +8°C° 0 mm 2 mps 729 mmHg 74%
    14:00 +8°C° 0 mm 1 mps 729 mmHg 76%
    15:00 +8°C° 0 mm 1 mps 730 mmHg 77%
    16:00 +7°C° 0 mm 1 mps 730 mmHg 79%
    17:00 +7°C° 0 mm 1 mps 730 mmHg 79%
    18:00 +7°C° 0 mm 1 mps 731 mmHg 78%
    19:00 +6°C° 0 mm 1 mps 731 mmHg 77%
    20:00 +6°C° 0 mm 1 mps 732 mmHg 76%
    21:00 +6°C° 0 mm 1 mps 732 mmHg 76%
    22:00 +6°C° 0 mm 1 mps 732 mmHg 75%
    23:00 +6°C° 0 mm 1 mps 733 mmHg 75%
    Show more